This demonstration page uses our WeatherBlox Daily Observations layout. Learn more.

Left ArrowRight Arrow

39.92423, -83.80882

Hourly Observations for March 3, 2019

Temp ( °F °C ) Dew Point ( °F °C ) Humidity (%) Winds ( mph kmh ) Pressure ( in mb ) Visibility ( mi km ) Precip ( " mm )
12:20 am 00:20 Cloudy 32 0 27 -3 80 80 NE 7 11 30.21 1023 10 16.0934 0 0
12:56 am 00:56 Cloudy 32 0 27 -2.8 82 82 NNE 8 13 30.19 1022 10 16.0934 0 0
1:56 am 01:56 Cloudy 31 -0.6 26 -3.3 82 82 NNE 8 13 30.17 1022 10 16.0934 0 0
2:56 am 02:56 Cloudy with Light Wintry Mix 31 -0.6 25 -3.9 79 79 NNE 7 11 30.16 1021 10 16.0934 0 0.0254
3:56 am 03:56 Cloudy 31 -0.6 25 -3.9 79 79 N 7 11 30.16 1021 10 16.0934 0 0.0254
4:45 am 04:45 Cloudy with Light Snow 30 -1 27 -3 86 86 NNE 7 11 30.18 1022 8 12.87472 0 0.0254
4:56 am 04:56 Cloudy with Light Snow 31 -0.6 25 -3.9 79 79 NE 7 11 30.15 1021 9 14.48406 0 0.0254
5:56 am 05:56 Cloudy with Light Snow 30 -1.1 27 -2.8 88 88 NNE 10 17 30.14 1021 4 6.43736 0 0.0254
6:56 am 06:56 Cloudy with Light Snow 29 -1.7 27 -2.8 92 92 ENE 8 13 30.11 1020 6 9.65604 0 0.0254
7:17 am 07:17 Cloudy with Mist and Fog 28 -2 27 -3 93 93 ENE 6 9 30.14 1021 5 8.0467 0 0.0254
7:30 am 07:30 Cloudy with Mist and Fog 28 -2 27 -3 93 93 ENE 7 11 30.14 1021 6 9.65604 0 0.0254
7:56 am 07:56 Cloudy with Mist and Fog 30 -1.1 27 -2.8 88 88 ENE 8 13 30.11 1020 6 9.65604 0 0.0254
8:56 am 08:56 Cloudy 30 -1.1 27 -2.8 88 88 NE 9 15 30.11 1020 8 12.87472 0 0
9:56 am 09:56 Cloudy with Light Snow 30 -1.1 27 -2.8 88 88 NNE 8 13 30.11 1020 6 9.65604 0 0.0254
10:13 am 10:13 Cloudy with Light Snow 30 -1 27 -3 86 86 NNE 10 17 30.13 1020 1.75 2.816345 0 0.0254
10:34 am 10:34 Cloudy with Light Snow 30 -1 27 -3 86 86 N 9 15 30.12 1020 1 1.60934 0.01 0.254
10:49 am 10:49 Cloudy with Light Snow 30 -1 28 -2 93 93 NNE 9 15 30.1 1019 0.75 1.207005 0.02 0.508
10:56 am 10:56 Cloudy with Light Snow 30 -1.1 28 -2.2 92 92 NNE 9 15 30.08 1019 0.75 1.207005 0.02 0.508
11:05 am 11:05 Cloudy with Snow 30 -1 28 -2 93 93 NNE 10 17 30.09 1019 0.5 0.80467 0 0.0254
11:17 am 11:17 Cloudy with Light Snow 30 -1 28 -2 93 93 NNE 12 19 30.08 1019 1 1.60934 0 0.0254
11:28 am 11:28 Cloudy with Light Snow 30 -1 28 -2 93 93 NNE 10 17 30.07 1018 1.5 2.41401 0 0.0254
11:43 am 11:43 Cloudy with Light Snow 30 -1 28 -2 93 93 NNE 14 22 30.06 1018 2 3.21868 0 0.0254
11:51 am 11:51 Cloudy with Light Snow 30 -1 28 -2 93 93 NNE 13 20 30.06 1018 3 4.82802 0 0.0254
11:56 am 11:56 Cloudy with Light Snow 30 -1.1 28 -2.2 92 92 NNE 14 22 30.03 1017 3 4.82802 0 0.0254
12:06 pm 12:06 Cloudy with Light Snow 30 -1 27 -3 86 86 NNE 14 22 30.06 1018 2 3.21868 0 0.0254
12:17 pm 12:17 Cloudy with Light Snow 30 -1 27 -3 86 86 NNE 17 28 30.05 1018 1.75 2.816345 0 0.0254
12:30 pm 12:30 Cloudy with Light Snow 28 -2 27 -3 93 93 N 13 20 30.07 1018 1 1.60934 0 0.0254
12:34 pm 12:34 Cloudy with Light Snow 28 -2 27 -3 93 93 N 13 20 30.07 1018 1.25 2.011675 0 0.0254
12:43 pm 12:43 Cloudy with Light Snow 28 -2 27 -3 93 93 N 9 15 30.07 1018 2 3.21868 0 0.0254
12:56 pm 12:56 Cloudy with Light Snow 29 -1.7 27 -2.8 92 92 N 15 24 30.04 1017 1.75 2.816345 0 0.0254
1:05 pm 13:05 Cloudy with Light Snow 28 -2 27 -3 93 93 N 12 19 30.06 1018 1 1.60934 0 0.0254
1:13 pm 13:13 Cloudy with Snow 28 -2 27 -3 93 93 N 10 17 30.05 1018 0.5 0.80467 0 0.0254
1:25 pm 13:25 Cloudy with Light Snow 28 -2 28 -2 100 100 N 10 17 30.03 1017 1 1.60934 0 0.0254
1:34 pm 13:34 Cloudy with Light Snow 28 -2 28 -2 100 100 N 12 19 30.03 1017 1.5 2.41401 0 0.0254
1:52 pm 13:52 Cloudy with Light Snow 28 -2 27 -3 93 93 N 14 22 30.02 1017 3 4.82802 0 0.0254
1:56 pm 13:56 Cloudy with Light Snow 29 -1.7 27 -2.8 92 92 N 15 24 30.01 1016 3 4.82802 0 0.0254
2:13 pm 14:13 Cloudy with Light Snow 28 -2 27 -3 93 93 N 12 19 30.05 1018 1.75 2.816345 0 0.0254
2:56 pm 14:56 Cloudy with Light Snow 28 -2.2 27 -2.8 96 96 NNW 13 20 30.02 1017 1.25 2.011675 0.01 0.254
3:04 pm 15:04 Cloudy with Light Snow 28 -2 27 -3 93 93 NNW 13 20 30.04 1017 1.25 2.011675 0 0.0254
3:21 pm 15:21 Cloudy with Light Snow 28 -2 27 -3 93 93 NNW 13 20 30.03 1017 1 1.60934 0.01 0.254
3:39 pm 15:39 Cloudy with Light Snow 28 -2 27 -3 93 93 N 13 20 30.02 1017 1.75 2.816345 0.01 0.254
3:47 pm 15:47 Cloudy with Light Snow 28 -2 27 -3 93 93 N 12 19 30.02 1017 2.5 4.02335 0.01 0.254
3:56 pm 15:56 Cloudy with Light Snow 28 -2.2 26 -3.3 92 92 N 16 26 29.99 1016 2.5 4.02335 0.01 0.254
4:13 pm 16:13 Cloudy with Light Snow 28 -2 25 -4 86 86 N 13 20 30.01 1016 3 4.82802 0 0.0254
4:31 pm 16:31 Cloudy with Light Snow 28 -2 27 -3 93 93 N 10 17 30.03 1017 2.5 4.02335 0 0.0254
4:56 pm 16:56 Cloudy with Light Snow 28 -2.2 26 -3.3 92 92 NW 9 15 30.03 1017 2.5 4.02335 0 0.0254
5:10 pm 17:10 Cloudy with Light Snow 27 -3 27 -3 100 100 NNW 13 20 30.05 1018 1.75 2.816345 0 0.0254
5:46 pm 17:46 Cloudy with Light Snow 27 -3 25 -4 93 93 NNW 12 19 30.05 1018 1.75 2.816345 0 0.0254
5:56 pm 17:56 Cloudy with Light Snow 26 -3.3 25 -3.9 96 96 NNW 14 22 30.02 1017 1.75 2.816345 0 0.0254
6:04 pm 18:04 Cloudy with Light Snow 27 -3 25 -4 93 93 NNW 13 20 30.05 1018 2 3.21868 0 0.0254
6:18 pm 18:18 Cloudy with Light Snow 27 -3 25 -4 93 93 NNW 14 22 30.05 1018 2 3.21868 0 0.0254
6:36 pm 18:36 Cloudy with Light Snow 27 -3 25 -4 93 93 NNW 12 19 30.05 1018 2.5 4.02335 0 0.0254
6:48 pm 18:48 Cloudy with Light Snow 27 -3 25 -4 93 93 NNW 10 17 30.05 1018 3 4.82802 0 0.0254
6:56 pm 18:56 Cloudy with Light Snow 26 -3.3 25 -3.9 96 96 NNW 10 17 30.03 1017 3 4.82802 0 0.0254
7:05 pm 19:05 Cloudy with Light Snow 27 -3 25 -4 93 93 NNW 9 15 30.06 1018 4 6.43736 0 0.0254
7:20 pm 19:20 Cloudy with Light Snow 27 -3 25 -4 93 93 NNW 10 17 30.06 1018 5 8.0467 0 0.0254
7:40 pm 19:40 Cloudy with Light Snow 25 -4 25 -4 100 100 NW 10 17 30.07 1018 6 9.65604 0 0.0254
7:56 pm 19:56 Cloudy with Light Snow 25 -3.9 24 -4.4 96 96 NW 12 19 30.05 1018 9 14.48406 0 0.0254
8:05 pm 20:05 Cloudy with Light Snow 25 -4 23 -5 93 93 NW 10 17 30.08 1019 9 14.48406 0 0.0254
8:24 pm 20:24 Cloudy 25 -4 23 -5 93 93 NW 12 19 30.09 1019 10 16.0934 0 0.0254
8:41 pm 20:41 Cloudy 25 -4 23 -5 93 93 NNW 12 19 30.09 1019 10 16.0934 0 0.0254
8:56 pm 20:56 Cloudy 24 -4.4 23 -5 96 96 NNW 9 15 30.07 1018 10 16.0934 0 0.0254
9:03 pm 21:03 Cloudy 25 -4 21 -6 86 86 NNW 9 15 30.09 1019 10 16.0934 0 0
9:34 pm 21:34 Mostly Cloudy 23 -5 21 -6 93 93 NNW 10 17 30.11 1020 10 16.0934 0 0
9:56 pm 21:56 Mostly Cloudy 23 -5 21 -6.1 92 92 NNW 12 19 30.08 1019 10 16.0934 0 0
10:56 pm 22:56 Mostly Cloudy 22 -5.6 20 -6.7 92 92 NNW 13 20 30.08 1019 10 16.0934 0 0
11:12 pm 23:12 Cloudy with Light Snow 21 -6 19 -7 93 93 NNW 13 20 30.12 1020 10 16.0934 0 0.0254
11:56 pm 23:56 Cloudy 23 -5 20 -6.7 88 88 NNW 12 19 30.09 1019 10 16.0934 0 0.0254

Powered by AerisWeather